Location: Atherton
(17.2661°S, 145.4859°E)
Time: 02:21:53
(UTC+10:00)

Altair - Visible Passes

Search period start: 24 June 2025 00:00
Search period end: 04 July 2025 00:00
Orbit: 1502 x 1682 km, 47.2° (Epoch: 23 June)

Date Brightness Start Highest point End Pass type
(mag) Time Alt. Az. Time Alt. Az. Time Alt. Az.
24 Jun 10.0 06:12:19 10° N 06:19:47 24° NE 06:27:18 10° ESE visible
24 Jun 8.9 18:51:50 10° WSW 19:00:19 39° NW 19:08:36 10° NNE visible
25 Jun 10.0 05:47:43 10° N 05:54:34 21° NE 06:01:28 10° E visible
25 Jun 8.8 18:26:22 10° WSW 18:35:09 44° NW 18:43:41 10° NNE visible
26 Jun 10.1 05:23:15 10° NNE 05:29:21 18° NE 05:35:30 10° E visible
26 Jun 8.6 18:00:57 10° WSW 18:09:59 49° NW 18:18:43 10° NNE visible
27 Jun 10.1 04:58:58 10° NNE 05:04:08 15° NE 05:09:20 10° E visible
28 Jun 10.1 04:35:01 10° NNE 04:38:55 13° NE 04:42:50 10° ENE visible
29 Jun 10.2 04:12:02 10° NE 04:13:42 10° NE 04:15:20 10° ENE visible
29 Jun 8.2 06:07:58 10° NNW 06:17:49 65° NE 06:27:53 10° SE visible
29 Jun 10.4 18:56:36 10° WNW 18:58:23 11° NW 19:00:09 10° NW visible
30 Jun 8.3 05:42:53 10° NNW 05:52:36 58° NE 06:02:31 10° SE visible
30 Jun 10.3 18:29:23 10° W 18:33:11 13° NW 18:36:59 10° NNW visible
01 Jul 8.4 05:17:50 10° NNW 05:27:22 52° NE 05:37:08 10° SE visible
02 Jul 8.5 04:52:49 10° NNW 05:02:09 47° NE 05:11:42 10° ESE visible
03 Jul 8.6 04:27:52 10° NNW 04:36:56 42° NE 04:46:15 10° ESE visible
